www.cux-wetter.de
Wetterdaten: Samstag, 04.04.2009
Datum Zeit Temp. A. Feuchte A. Luftdruck Regen Wind Richtung Richtung Sonnenschein Solar Taupunkt Windchill Windben
04.04.2009 00:04 10,3 C 78 % 1013,5 hPa 0,0 l/m 10,6 km/h (2 Bft) O 95 0 min 0 W/m 6,6 C 7,6 C 10,6 km/h (2 Bft)
04.04.2009 00:09 10,2 C 79 % 1013,5 hPa 0,0 l/m 8,5 km/h (2 Bft) O-SO 105 0 min 0 W/m 6,7 C 8,7 C 8,5 km/h (2 Bft)
04.04.2009 00:14 10,1 C 79 % 1013,5 hPa 0,0 l/m 5,9 km/h (2 Bft) O 90 0 min 0 W/m 6,6 C 10,1 C 5,9 km/h (2 Bft)
04.04.2009 00:19 10,0 C 79 % 1013,5 hPa 0,0 l/m 8,8 km/h (2 Bft) O-SO 105 0 min 0 W/m 6,5 C 8,3 C 8,8 km/h (2 Bft)
04.04.2009 00:24 9,9 C 79 % 1013,5 hPa 0,0 l/m 7,2 km/h (2 Bft) O 95 0 min 0 W/m 6,4 C 9,3 C 7,2 km/h (2 Bft)
04.04.2009 00:30 9,9 C 79 % 1013,5 hPa 0,0 l/m 7,8 km/h (2 Bft) O-SO 105 0 min 0 W/m 6,4 C 8,9 C 7,8 km/h (2 Bft)
04.04.2009 00:35 9,7 C 80 % 1013,5 hPa 0,0 l/m 8,2 km/h (2 Bft) O-SO 115 0 min 0 W/m 6,4 C 8,4 C 8,2 km/h (2 Bft)
04.04.2009 00:40 9,6 C 80 % 1013,5 hPa 0,0 l/m 5,0 km/h (1 Bft) O 95 0 min 0 W/m 6,3 C 9,6 C 5,0 km/h (1 Bft)
04.04.2009 00:44 9,5 C 81 % 1013,5 hPa 0,0 l/m 8,3 km/h (2 Bft) O-SO 115 0 min 0 W/m 6,4 C 8,1 C 8,3 km/h (2 Bft)
04.04.2009 00:49 9,5 C 81 % 1013,5 hPa 0,0 l/m 8,9 km/h (2 Bft) O-SO 110 0 min 0 W/m 6,4 C 7,7 C 8,9 km/h (2 Bft)
04.04.2009 00:54 9,4 C 81 % 1013,5 hPa 0,0 l/m 6,8 km/h (2 Bft) SO 135 0 min 0 W/m 6,3 C 9,1 C 6,8 km/h (2 Bft)
04.04.2009 00:59 9,4 C 82 % 1013,5 hPa 0,0 l/m 6,3 km/h (2 Bft) O 95 0 min 0 W/m 6,5 C 9,4 C 6,3 km/h (2 Bft)
04.04.2009 01:04 9,4 C 82 % 1013,5 hPa 0,0 l/m 0,6 km/h (0 Bft) O-SO 120 0 min 0 W/m 6,5 C 9,4 C 0,6 km/h (0 Bft)
04.04.2009 01:09 9,4 C 82 % 1013,5 hPa 0,0 l/m 2,2 km/h (1 Bft) O-SO 120 0 min 0 W/m 6,5 C 9,4 C 2,2 km/h (1 Bft)
04.04.2009 01:14 9,4 C 82 % 1013,5 hPa 0,0 l/m 1,0 km/h (0 Bft) O-SO 105 0 min 0 W/m 6,5 C 9,4 C 1,0 km/h (0 Bft)
04.04.2009 01:19 9,3 C 82 % 1013,5 hPa 0,0 l/m 2,4 km/h (1 Bft) O-SO 115 0 min 0 W/m 6,4 C 9,3 C 2,4 km/h (1 Bft)
04.04.2009 01:24 9,2 C 82 % 1013,5 hPa 0,0 l/m 2,2 km/h (1 Bft) SO 125 0 min 0 W/m 6,3 C 9,2 C 2,2 km/h (1 Bft)
04.04.2009 01:29 9,2 C 82 % 1013,5 hPa 0,0 l/m 3,8 km/h (1 Bft) O-SO 105 0 min 0 W/m 6,3 C 9,2 C 3,8 km/h (1 Bft)
04.04.2009 01:35 9,0 C 82 % 1013,5 hPa 0,0 l/m 3,2 km/h (1 Bft) O-SO 110 0 min 0 W/m 6,1 C 9,0 C 3,2 km/h (1 Bft)
04.04.2009 01:40 9,0 C 83 % 1013,5 hPa 0,0 l/m 3,2 km/h (1 Bft) O-SO 110 0 min 0 W/m 6,3 C 9,0 C 3,2 km/h (1 Bft)
04.04.2009 01:45 9,0 C 82 % 1013,5 hPa 0,0 l/m 0,9 km/h (0 Bft) O-SO 110 0 min 0 W/m 6,1 C 9,0 C 0,9 km/h (0 Bft)
04.04.2009 01:49 8,9 C 82 % 1013,5 hPa 0,0 l/m 0,2 km/h (0 Bft) O-SO 110 0 min 0 W/m 6,0 C 8,9 C 0,2 km/h (0 Bft)
04.04.2009 01:54 8,8 C 83 % 1013,5 hPa 0,0 l/m 0,6 km/h (0 Bft) O-SO 105 0 min 0 W/m 6,1 C 8,8 C 0,6 km/h (0 Bft)
04.04.2009 01:59 8,8 C 83 % 1013,5 hPa 0,0 l/m 0,0 km/h (0 Bft) O-SO 105 0 min 0 W/m 6,1 C 8,8 C 0,0 km/h (0 Bft)
04.04.2009 02:04 8,7 C 83 % 1013,5 hPa 0,0 l/m 0,1 km/h (0 Bft) O-SO 105 0 min 0 W/m 6,0 C 8,7 C 0,1 km/h (0 Bft)
04.04.2009 02:10 8,6 C 83 % 1013,5 hPa 0,0 l/m 0,3 km/h (0 Bft) O-SO 105 0 min 0 W/m 5,9 C 8,6 C 0,3 km/h (0 Bft)
04.04.2009 02:14 8,6 C 83 % 1013,5 hPa 0,0 l/m 0,1 km/h (0 Bft) O-SO 105 0 min 0 W/m 5,9 C 8,6 C 0,1 km/h (0 Bft)
04.04.2009 02:19 8,5 C 83 % 1013,5 hPa 0,0 l/m 0,3 km/h (0 Bft) O-SO 105 0 min 0 W/m 5,8 C 8,5 C 0,3 km/h (0 Bft)
04.04.2009 02:24 8,5 C 83 % 1013,5 hPa 0,0 l/m 3,1 km/h (1 Bft) O-SO 105 0 min 0 W/m 5,8 C 8,5 C 3,1 km/h (1 Bft)
04.04.2009 02:29 8,4 C 83 % 1013,5 hPa 0,0 l/m 0,0 km/h (0 Bft) O-SO 105 0 min 0 W/m 5,7 C 8,4 C 0,0 km/h (0 Bft)
04.04.2009 02:34 8,4 C 83 % 1013,5 hPa 0,0 l/m 2,6 km/h (1 Bft) O-SO 105 0 min 0 W/m 5,7 C 8,4 C 2,6 km/h (1 Bft)
04.04.2009 02:40 8,4 C 83 % 1013,5 hPa 0,0 l/m 0,6 km/h (0 Bft) O-SO 105 0 min 0 W/m 5,7 C 8,4 C 0,6 km/h (0 Bft)
04.04.2009 02:45 8,3 C 83 % 1013,5 hPa 0,0 l/m 0,9 km/h (0 Bft) O-SO 110 0 min 0 W/m 5,6 C 8,3 C 0,9 km/h (0 Bft)
04.04.2009 02:49 8,2 C 84 % 1013,5 hPa 0,0 l/m 3,0 km/h (1 Bft) O-SO 110 0 min 0 W/m 5,7 C 8,2 C 3,0 km/h (1 Bft)
04.04.2009 02:54 8,2 C 84 % 1013,5 hPa 0,0 l/m 0,8 km/h (0 Bft) O-SO 110 0 min 0 W/m 5,7 C 8,2 C 0,8 km/h (0 Bft)
04.04.2009 02:59 8,2 C 84 % 1013,5 hPa 0,0 l/m 3,2 km/h (1 Bft) O-SO 105 0 min 0 W/m 5,7 C 8,2 C 3,2 km/h (1 Bft)
04.04.2009 03:04 8,1 C 84 % 1013,5 hPa 0,0 l/m 4,4 km/h (1 Bft) O-SO 105 0 min 0 W/m 5,6 C 8,1 C 4,4 km/h (1 Bft)
04.04.2009 03:09 8,0 C 84 % 1013,5 hPa 0,0 l/m 0,0 km/h (0 Bft) O-SO 105 0 min 0 W/m 5,5 C 8,0 C 0,0 km/h (0 Bft)
04.04.2009 03:14 8,0 C 84 % 1013,5 hPa 0,0 l/m 0,0 km/h (0 Bft) O-SO 105 0 min 0 W/m 5,5 C 8,0 C 0,0 km/h (0 Bft)
04.04.2009 03:19 7,9 C 84 % 1012,5 hPa 0,0 l/m 0,1 km/h (0 Bft) O-SO 105 0 min 0 W/m 5,4 C 7,9 C 0,1 km/h (0 Bft)
04.04.2009 03:24 7,8 C 84 % 1012,5 hPa 0,0 l/m 0,0 km/h (0 Bft) O-SO 105 0 min 0 W/m 5,3 C 7,8 C 0,0 km/h (0 Bft)
04.04.2009 03:30 7,7 C 84 % 1012,5 hPa 0,0 l/m 0,0 km/h (0 Bft) O-SO 110 0 min 0 W/m 5,2 C 7,7 C 0,0 km/h (0 Bft)
04.04.2009 03:35 7,7 C 84 % 1012,5 hPa 0,0 l/m 0,1 km/h (0 Bft) O-SO 110 0 min 0 W/m 5,2 C 7,7 C 0,1 km/h (0 Bft)
04.04.2009 03:39 7,6 C 84 % 1012,5 hPa 0,0 l/m 0,1 km/h (0 Bft) O-SO 110 0 min 0 W/m 5,1 C 7,6 C 0,1 km/h (0 Bft)
04.04.2009 03:44 7,6 C 84 % 1012,5 hPa 0,0 l/m 3,9 km/h (1 Bft) O-SO 110 0 min 0 W/m 5,1 C 7,6 C 3,9 km/h (1 Bft)
04.04.2009 03:49 7,5 C 85 % 1012,5 hPa 0,0 l/m 3,6 km/h (1 Bft) O-SO 110 0 min 0 W/m 5,1 C 7,5 C 3,6 km/h (1 Bft)
04.04.2009 03:54 7,5 C 85 % 1012,5 hPa 0,0 l/m 2,7 km/h (1 Bft) O-SO 110 0 min 0 W/m 5,1 C 7,5 C 2,7 km/h (1 Bft)
04.04.2009 04:00 7,4 C 85 % 1012,5 hPa 0,0 l/m 0,0 km/h (0 Bft) O-SO 110 0 min 0 W/m 5,0 C 7,4 C 0,0 km/h (0 Bft)
04.04.2009 04:04 7,4 C 85 % 1012,5 hPa 0,0 l/m 0,3 km/h (0 Bft) O-SO 110 0 min 0 W/m 5,0 C 7,4 C 0,3 km/h (0 Bft)
04.04.2009 04:10 7,3 C 85 % 1012,5 hPa 0,0 l/m 0,1 km/h (0 Bft) O-SO 110 0 min 0 W/m 4,9 C 7,3 C 0,1 km/h (0 Bft)
04.04.2009 04:14 7,2 C 85 % 1012,5 hPa 0,0 l/m 0,6 km/h (0 Bft) O-SO 110 0 min 0 W/m 4,9 C 7,2 C 0,6 km/h (0 Bft)
04.04.2009 04:19 7,2 C 85 % 1012,5 hPa 0,0 l/m 6,0 km/h (2 Bft) O-SO 120 0 min 0 W/m 4,9 C 7,2 C 6,0 km/h (2 Bft)
04.04.2009 04:24 7,2 C 85 % 1012,5 hPa 0,0 l/m 5,6 km/h (2 Bft) S-SO 160 0 min 0 W/m 4,9 C 7,2 C 5,6 km/h (2 Bft)
04.04.2009 04:29 7,2 C 85 % 1012,5 hPa 0,0 l/m 4,2 km/h (1 Bft) S-SO 155 0 min 0 W/m 4,9 C 7,2 C 4,2 km/h (1 Bft)
04.04.2009 04:34 7,2 C 86 % 1012,5 hPa 0,0 l/m 5,8 km/h (2 Bft) S-SO 160 0 min 0 W/m 5,0 C 7,2 C 5,8 km/h (2 Bft)
04.04.2009 04:40 7,3 C 86 % 1012,5 hPa 0,0 l/m 3,4 km/h (1 Bft) S-SO 160 0 min 0 W/m 5,1 C 7,3 C 3,4 km/h (1 Bft)
04.04.2009 04:44 7,3 C 86 % 1012,5 hPa 0,0 l/m 5,0 km/h (1 Bft) S-SO 160 0 min 0 W/m 5,1 C 7,3 C 5,0 km/h (1 Bft)
04.04.2009 04:49 7,3 C 86 % 1012,5 hPa 0,0 l/m 3,4 km/h (1 Bft) S-SO 155 0 min 0 W/m 5,1 C 7,3 C 3,4 km/h (1 Bft)
04.04.2009 04:54 7,3 C 86 % 1012,5 hPa 0,0 l/m 5,2 km/h (1 Bft) S-SO 155 0 min 0 W/m 5,1 C 7,3 C 5,2 km/h (1 Bft)
04.04.2009 04:59 7,3 C 86 % 1012,5 hPa 0,0 l/m 4,1 km/h (1 Bft) S-SO 160 0 min 0 W/m 5,1 C 7,3 C 4,1 km/h (1 Bft)
04.04.2009 05:05 7,3 C 86 % 1012,5 hPa 0,0 l/m 3,8 km/h (1 Bft) S 175 0 min 0 W/m 5,1 C 7,3 C 3,8 km/h (1 Bft)
04.04.2009 05:09 7,3 C 86 % 1012,5 hPa 0,0 l/m 5,2 km/h (1 Bft) S 180 0 min 0 W/m 5,1 C 7,3 C 5,2 km/h (1 Bft)
04.04.2009 05:15 7,3 C 87 % 1012,5 hPa 0,0 l/m 4,8 km/h (1 Bft) S 180 0 min 0 W/m 5,3 C 7,3 C 4,8 km/h (1 Bft)
04.04.2009 05:20 7,3 C 87 % 1012,5 hPa 0,0 l/m 4,4 km/h (1 Bft) S 180 0 min 0 W/m 5,3 C 7,3 C 4,4 km/h (1 Bft)
04.04.2009 05:24 7,4 C 87 % 1012,5 hPa 0,0 l/m 3,0 km/h (1 Bft) S 180 0 min 0 W/m 5,4 C 7,4 C 3,0 km/h (1 Bft)
04.04.2009 05:29 7,4 C 87 % 1012,5 hPa 0,0 l/m 4,6 km/h (1 Bft) S 180 0 min 0 W/m 5,4 C 7,4 C 4,6 km/h (1 Bft)
04.04.2009 05:34 7,3 C 87 % 1012,5 hPa 0,0 l/m 3,9 km/h (1 Bft) S 175 0 min 0 W/m 5,3 C 7,3 C 3,9 km/h (1 Bft)
04.04.2009 05:39 7,3 C 87 % 1012,5 hPa 0,0 l/m 4,0 km/h (1 Bft) S 175 0 min 0 W/m 5,3 C 7,3 C 4,0 km/h (1 Bft)
04.04.2009 05:44 7,2 C 87 % 1012,5 hPa 0,0 l/m 4,8 km/h (1 Bft) S-SO 160 0 min 0 W/m 5,2 C 7,2 C 4,8 km/h (1 Bft)
04.04.2009 05:50 7,2 C 87 % 1012,5 hPa 0,0 l/m 3,4 km/h (1 Bft) S-SO 150 0 min 0 W/m 5,2 C 7,2 C 3,4 km/h (1 Bft)
04.04.2009 05:54 7,0 C 87 % 1012,5 hPa 0,0 l/m 3,3 km/h (1 Bft) S-SO 150 0 min 0 W/m 5,0 C 7,0 C 3,3 km/h (1 Bft)
04.04.2009 05:59 6,8 C 87 % 1012,5 hPa 0,0 l/m 4,4 km/h (1 Bft) S-SO 155 0 min 0 W/m 4,8 C 6,8 C 4,4 km/h (1 Bft)
04.04.2009 06:04 6,8 C 87 % 1012,5 hPa 0,0 l/m 0,0 km/h (0 Bft) S-SO 155 0 min 0 W/m 4,8 C 6,8 C 0,0 km/h (0 Bft)
04.04.2009 06:09 6,8 C 87 % 1012,5 hPa 0,0 l/m 0,0 km/h (0 Bft) S-SO 155 0 min 0 W/m 4,8 C 6,8 C 0,0 km/h (0 Bft)
04.04.2009 06:14 6,8 C 87 % 1012,5 hPa 0,0 l/m 3,0 km/h (1 Bft) S-SO 155 0 min 0 W/m 4,8 C 6,8 C 3,0 km/h (1 Bft)
04.04.2009 06:19 6,7 C 87 % 1012,5 hPa 0,0 l/m 7,6 km/h (2 Bft) S-SO 155 0 min 0 W/m 4,7 C 5,7 C 7,6 km/h (2 Bft)
04.04.2009 06:25 6,7 C 87 % 1012,5 hPa 0,0 l/m 5,6 km/h (2 Bft) S-SO 150 0 min 0 W/m 4,7 C 6,7 C 5,6 km/h (2 Bft)
04.04.2009 06:30 6,7 C 87 % 1012,5 hPa 0,0 l/m 3,9 km/h (1 Bft) S-SO 155 0 min 0 W/m 4,7 C 6,7 C 3,9 km/h (1 Bft)
04.04.2009 06:34 6,8 C 87 % 1012,5 hPa 0,0 l/m 0,0 km/h (0 Bft) S-SO 150 0 min 0 W/m 4,8 C 6,8 C 0,0 km/h (0 Bft)
04.04.2009 06:39 6,8 C 87 % 1012,5 hPa 0,0 l/m 0,1 km/h (0 Bft) S-SO 150 0 min 0 W/m 4,8 C 6,8 C 0,1 km/h (0 Bft)
04.04.2009 06:44 6,8 C 87 % 1012,5 hPa 0,0 l/m 0,0 km/h (0 Bft) S-SO 150 0 min 0 W/m 4,8 C 6,8 C 0,0 km/h (0 Bft)
04.04.2009 06:49 6,8 C 87 % 1012,5 hPa 0,0 l/m 4,7 km/h (1 Bft) S-SO 150 0 min 0 W/m 4,8 C 6,8 C 4,7 km/h (1 Bft)
04.04.2009 06:55 6,8 C 87 % 1012,5 hPa 0,0 l/m 1,9 km/h (1 Bft) S-SO 150 0 min 0 W/m 4,8 C 6,8 C 1,9 km/h (1 Bft)
04.04.2009 07:00 6,8 C 87 % 1012,5 hPa 0,0 l/m 4,8 km/h (1 Bft) S-SO 150 0 min 0 W/m 4,8 C 6,8 C 4,8 km/h (1 Bft)
04.04.2009 07:04 6,8 C 87 % 1012,5 hPa 0,0 l/m 0,0 km/h (0 Bft) S-SO 150 0 min 0 W/m 4,8 C 6,8 C 0,0 km/h (0 Bft)
04.04.2009 07:10 6,8 C 87 % 1012,5 hPa 0,0 l/m 0,0 km/h (0 Bft) S-SO 150 0 min 0 W/m 4,8 C 6,8 C 0,0 km/h (0 Bft)
04.04.2009 07:15 6,8 C 88 % 1012,5 hPa 0,0 l/m 0,0 km/h (0 Bft) S-SO 150 0 min 0 W/m 5,0 C 6,8 C 0,0 km/h (0 Bft)
04.04.2009 07:19 6,8 C 88 % 1012,5 hPa 0,0 l/m 0,0 km/h (0 Bft) S-SO 150 0 min 0 W/m 5,0 C 6,8 C 0,0 km/h (0 Bft)
04.04.2009 07:24 6,8 C 88 % 1012,5 hPa 0,0 l/m 0,0 km/h (0 Bft) S-SO 150 0 min 0 W/m 5,0 C 6,8 C 0,0 km/h (0 Bft)
04.04.2009 07:29 6,8 C 88 % 1012,5 hPa 0,0 l/m 0,0 km/h (0 Bft) S-SO 150 0 min 0 W/m 5,0 C 6,8 C 0,0 km/h (0 Bft)
04.04.2009 07:34 6,8 C 88 % 1012,5 hPa 0,0 l/m 0,0 km/h (0 Bft) S-SO 150 0 min 0 W/m 5,0 C 6,8 C 0,0 km/h (0 Bft)
04.04.2009 07:39 6,8 C 88 % 1012,5 hPa 0,0 l/m 0,0 km/h (0 Bft) S-SO 150 0 min 0 W/m 5,0 C 6,8 C 0,0 km/h (0 Bft)
04.04.2009 07:45 6,8 C 88 % 1012,5 hPa 0,0 l/m 0,0 km/h (0 Bft) S-SO 150 0 min 0 W/m 5,0 C 6,8 C 0,0 km/h (0 Bft)
04.04.2009 07:50 6,9 C 88 % 1012,5 hPa 0,0 l/m 0,0 km/h (0 Bft) S-SO 150 0 min 0 W/m 5,1 C 6,9 C 0,0 km/h (0 Bft)
04.04.2009 07:54 7,0 C 88 % 1012,5 hPa 0,0 l/m 3,7 km/h (1 Bft) S-SW 195 0 min 0 W/m 5,2 C 7,0 C 3,7 km/h (1 Bft)
04.04.2009 07:59 7,0 C 88 % 1012,5 hPa 0,0 l/m 0,0 km/h (0 Bft) S-SW 210 0 min 0 W/m 5,2 C 7,0 C 0,0 km/h (0 Bft)
04.04.2009 08:04 7,2 C 89 % 1012,5 hPa 0,0 l/m 4,0 km/h (1 Bft) S-SW 210 0 min 0 W/m 5,5 C 7,2 C 4,0 km/h (1 Bft)
04.04.2009 08:09 7,3 C 89 % 1012,5 hPa 0,0 l/m 3,7 km/h (1 Bft) S 185 0 min 0 W/m 5,6 C 7,3 C 3,7 km/h (1 Bft)
04.04.2009 08:14 7,4 C 89 % 1012,5 hPa 0,0 l/m 4,0 km/h (1 Bft) S 180 0 min 0 W/m 5,7 C 7,4 C 4,0 km/h (1 Bft)
04.04.2009 08:19 7,6 C 89 % 1013,5 hPa 0,0 l/m 6,4 km/h (2 Bft) SW 225 0 min 0 W/m 5,9 C 7,6 C 6,4 km/h (2 Bft)
04.04.2009 08:24 8,1 C 90 % 1013,5 hPa 0,0 l/m 4,4 km/h (1 Bft) SW 235 0 min 0 W/m 6,6 C 8,1 C 4,4 km/h (1 Bft)
04.04.2009 08:30 8,4 C 89 % 1013,5 hPa 0,0 l/m 2,6 km/h (1 Bft) SW 235 0 min 0 W/m 6,7 C 8,4 C 2,6 km/h (1 Bft)
04.04.2009 08:35 8,5 C 90 % 1013,5 hPa 0,0 l/m 0,6 km/h (0 Bft) SW 235 0 min 0 W/m 7,0 C 8,5 C 0,6 km/h (0 Bft)
04.04.2009 08:39 8,8 C 90 % 1013,5 hPa 0,0 l/m 7,2 km/h (2 Bft) W-SW 250 0 min 0 W/m 7,3 C 8,2 C 7,2 km/h (2 Bft)
04.04.2009 08:44 9,2 C 90 % 1013,5 hPa 0,0 l/m 7,8 km/h (2 Bft) W-SW 255 0 min 0 W/m 7,6 C 8,2 C 7,8 km/h (2 Bft)
04.04.2009 08:49 9,5 C 91 % 1013,5 hPa 0,0 l/m 10,6 km/h (2 Bft) W 260 0 min 0 W/m 8,1 C 6,7 C 10,6 km/h (2 Bft)
04.04.2009 08:55 9,9 C 91 % 1013,5 hPa 0,0 l/m 10,9 km/h (2 Bft) W 260 0 min 0 W/m 8,5 C 7,0 C 10,9 km/h (2 Bft)
04.04.2009 09:00 10,3 C 90 % 1013,5 hPa 0,0 l/m 12,0 km/h (2 Bft) W 260 0 min 0 W/m 8,7 C 6,9 C 12,0 km/h (2 Bft)
04.04.2009 09:04 10,4 C 90 % 1013,5 hPa 0,0 l/m 14,8 km/h (3 Bft) W 265 0 min 0 W/m 8,8 C 5,7 C 14,8 km/h (3 Bft)
04.04.2009 09:10 10,8 C 89 % 1013,5 hPa 0,0 l/m 9,8 km/h (2 Bft) W 270 0 min 0 W/m 9,1 C 8,6 C 9,8 km/h (2 Bft)
04.04.2009 09:14 10,9 C 88 % 1013,5 hPa 0,0 l/m 9,5 km/h (2 Bft) W 280 0 min 0 W/m 9,0 C 8,9 C 9,5 km/h (2 Bft)
04.04.2009 09:19 11,0 C 88 % 1013,5 hPa 0,0 l/m 12,1 km/h (2 Bft) W 270 0 min 0 W/m 9,1 C 7,6 C 12,1 km/h (2 Bft)
04.04.2009 09:24 11,1 C 87 % 1013,5 hPa 0,0 l/m 14,5 km/h (3 Bft) W 270 0 min 0 W/m 9,0 C 6,7 C 14,5 km/h (3 Bft)
04.04.2009 09:29 11,2 C 86 % 1013,5 hPa 0,0 l/m 19,0 km/h (3 Bft) W 265 0 min 0 W/m 8,9 C 5,2 C 19,0 km/h (3 Bft)
04.04.2009 09:35 11,2 C 86 % 1013,5 hPa 0,0 l/m 13,9 km/h (3 Bft) W 260 0 min 0 W/m 8,9 C 7,0 C 13,9 km/h (3 Bft)
04.04.2009 09:39 11,1 C 85 % 1013,5 hPa 0,0 l/m 13,8 km/h (3 Bft) W 265 0 min 0 W/m 8,7 C 7,0 C 13,8 km/h (3 Bft)
04.04.2009 09:44 11,1 C 85 % 1013,5 hPa 0,0 l/m 16,8 km/h (3 Bft) W-SW 255 0 min 0 W/m 8,7 C 5,8 C 16,8 km/h (3 Bft)
04.04.2009 09:49 11,1 C 85 % 1013,5 hPa 0,0 l/m 13,3 km/h (3 Bft) W 260 0 min 0 W/m 8,7 C 7,2 C 13,3 km/h (3 Bft)
04.04.2009 09:54 11,1 C 85 % 1013,5 hPa 0,0 l/m 19,7 km/h (3 Bft) W 275 0 min 0 W/m 8,7 C 4,8 C 19,7 km/h (3 Bft)
04.04.2009 10:00 11,0 C 84 % 1013,5 hPa 0,0 l/m 19,3 km/h (3 Bft) W 270 0 min 0 W/m 8,4 C 4,8 C 19,3 km/h (3 Bft)
04.04.2009 10:04 11,0 C 84 % 1013,5 hPa 0,0 l/m 17,5 km/h (3 Bft) W-NW 290 0 min 0 W/m 8,4 C 5,4 C 17,5 km/h (3 Bft)
04.04.2009 10:10 10,9 C 84 % 1013,5 hPa 0,0 l/m 26,5 km/h (4 Bft) W 270 0 min 0 W/m 8,3 C 2,7 C 26,5 km/h (4 Bft)
04.04.2009 10:14 10,8 C 84 % 1013,5 hPa 0,0 l/m 21,1 km/h (4 Bft) W-NW 290 0 min 0 W/m 8,2 C 4,0 C 21,1 km/h (4 Bft)
04.04.2009 10:19 10,8 C 84 % 1013,5 hPa 0,0 l/m 21,7 km/h (4 Bft) W-NW 300 0 min 0 W/m 8,2 C 3,8 C 21,7 km/h (4 Bft)
04.04.2009 10:24 10,7 C 83 % 1014,5 hPa 0,0 l/m 23,3 km/h (4 Bft) W 275 0 min 0 W/m 7,9 C 3,2 C 23,3 km/h (4 Bft)
04.04.2009 10:29 10,6 C 83 % 1014,5 hPa 0,0 l/m 21,8 km/h (4 Bft) W 280 0 min 0 W/m 7,8 C 3,5 C 21,8 km/h (4 Bft)
04.04.2009 10:35 10,5 C 83 % 1014,5 hPa 0,0 l/m 24,0 km/h (4 Bft) W-NW 295 0 min 0 W/m 7,7 C 2,8 C 24,0 km/h (4 Bft)
04.04.2009 10:40 10,4 C 83 % 1014,5 hPa 0,0 l/m 26,5 km/h (4 Bft) W-NW 300 0 min 0 W/m 7,6 C 2,0 C 26,5 km/h (4 Bft)
04.04.2009 10:44 10,4 C 83 % 1014,5 hPa 0,0 l/m 26,1 km/h (4 Bft) W-NW 300 0 min 0 W/m 7,6 C 2,1 C 26,1 km/h (4 Bft)
04.04.2009 10:49 10,2 C 82 % 1014,5 hPa 0,0 l/m 26,5 km/h (4 Bft) W-NW 300 0 min 0 W/m 7,3 C 1,7 C 26,5 km/h (4 Bft)
04.04.2009 10:54 10,0 C 82 % 1014,5 hPa 0,0 l/m 30,6 km/h (5 Bft) W-NW 300 0 min 0 W/m 7,1 C 0,5 C 30,6 km/h (5 Bft)
04.04.2009 10:59 10,0 C 83 % 1014,5 hPa 0,0 l/m 22,0 km/h (4 Bft) W-NW 300 0 min 0 W/m 7,2 C 2,7 C 22,0 km/h (4 Bft)
04.04.2009 11:05 9,6 C 84 % 1014,5 hPa 0,0 l/m 28,3 km/h (5 Bft) W-NW 295 0 min 0 W/m 7,0 C 0,5 C 28,3 km/h (5 Bft)
04.04.2009 11:09 9,2 C 83 % 1014,5 hPa 0,0 l/m 27,2 km/h (5 Bft) W-NW 300 0 min 0 W/m 6,5 C 0,2 C 27,2 km/h (5 Bft)
04.04.2009 11:15 8,8 C 85 % 1015,5 hPa 0,0 l/m 27,5 km/h (5 Bft) W-NW 290 0 min 0 W/m 6,4 C -0,4 C 27,5 km/h (5 Bft)
04.04.2009 11:20 8,7 C 86 % 1015,5 hPa 0,0 l/m 23,3 km/h (4 Bft) W 275 0 min 0 W/m 6,5 C 0,6 C 23,3 km/h (4 Bft)
04.04.2009 11:24 8,5 C 87 % 1015,5 hPa 0,0 l/m 23,5 km/h (4 Bft) W-NW 285 0 min 0 W/m 6,5 C 0,2 C 23,5 km/h (4 Bft)
04.04.2009 11:29 8,4 C 87 % 1015,5 hPa 0,0 l/m 30,5 km/h (5 Bft) W-NW 300 0 min 0 W/m 6,4 C -1,7 C 30,5 km/h (5 Bft)
04.04.2009 11:34 8,3 C 87 % 1015,5 hPa 0,0 l/m 21,1 km/h (4 Bft) W-NW 290 0 min 0 W/m 6,3 C 0,7 C 21,1 km/h (4 Bft)
04.04.2009 11:40 8,3 C 88 % 1015,5 hPa 0,0 l/m 26,3 km/h (4 Bft) W-NW 295 0 min 0 W/m 6,4 C -0,8 C 26,3 km/h (4 Bft)
04.04.2009 11:45 8,5 C 88 % 1015,5 hPa 0,0 l/m 24,6 km/h (4 Bft) W-NW 295 0 min 0 W/m 6,6 C -0,1 C 24,6 km/h (4 Bft)
04.04.2009 11:49 8,6 C 88 % 1015,5 hPa 0,0 l/m 23,3 km/h (4 Bft) W-NW 295 0 min 0 W/m 6,7 C 0,4 C 23,3 km/h (4 Bft)
04.04.2009 11:54 9,0 C 87 % 1015,5 hPa 0,0 l/m 28,5 km/h (5 Bft) W-NW 295 0 min 0 W/m 7,0 C -0,4 C 28,5 km/h (5 Bft)
04.04.2009 11:59 9,2 C 86 % 1015,5 hPa 0,0 l/m 27,1 km/h (5 Bft) W-NW 300 0 min 0 W/m 7,0 C 0,2 C 27,1 km/h (5 Bft)
04.04.2009 12:04 9,3 C 86 % 1015,5 hPa 0,0 l/m 26,6 km/h (4 Bft) W-NW 285 0 min 0 W/m 7,1 C 0,5 C 26,6 km/h (4 Bft)
04.04.2009 12:09 9,3 C 85 % 1015,5 hPa 0,0 l/m 27,9 km/h (5 Bft) W-NW 295 0 min 0 W/m 6,9 C 0,2 C 27,9 km/h (5 Bft)
04.04.2009 12:14 9,3 C 84 % 1015,5 hPa 0,0 l/m 27,9 km/h (5 Bft) W-NW 295 0 min 0 W/m 6,7 C 0,2 C 27,9 km/h (5 Bft)
04.04.2009 12:19 9,1 C 85 % 1015,5 hPa 0,0 l/m 27,7 km/h (5 Bft) W-NW 295 0 min 0 W/m 6,7 C -0,1 C 27,7 km/h (5 Bft)
04.04.2009 12:25 9,1 C 85 % 1015,5 hPa 0,0 l/m 26,6 km/h (4 Bft) W-NW 295 0 min 0 W/m 6,7 C 0,2 C 26,6 km/h (4 Bft)
04.04.2009 12:29 9,0 C 85 % 1015,5 hPa 0,0 l/m 27,9 km/h (5 Bft) W-NW 295 0 min 0 W/m 6,6 C -0,3 C 27,9 km/h (5 Bft)
04.04.2009 12:34 8,9 C 86 % 1015,5 hPa 0,0 l/m 27,1 km/h (5 Bft) W-NW 295 0 min 0 W/m 6,7 C -0,2 C 27,1 km/h (5 Bft)
04.04.2009 12:39 8,8 C 87 % 1015,5 hPa 0,0 l/m 27,3 km/h (5 Bft) W-NW 290 0 min 0 W/m 6,8 C -0,4 C 27,3 km/h (5 Bft)
04.04.2009 12:44 8,7 C 87 % 1015,5 hPa 0,0 l/m 20,5 km/h (4 Bft) NW 305 0 min 0 W/m 6,7 C 1,4 C 20,5 km/h (4 Bft)
04.04.2009 12:50 8,6 C 88 % 1015,5 hPa 0,0 l/m 24,0 km/h (4 Bft) W-NW 285 0 min 0 W/m 6,7 C 0,2 C 24,0 km/h (4 Bft)
04.04.2009 12:55 8,6 C 89 % 1015,5 hPa 0,0 l/m 23,4 km/h (4 Bft) NW 305 0 min 0 W/m 6,9 C 0,4 C 23,4 km/h (4 Bft)
04.04.2009 12:59 8,6 C 90 % 1015,5 hPa 0,0 l/m 25,7 km/h (4 Bft) W-NW 295 0 min 0 W/m 7,1 C -0,3 C 25,7 km/h (4 Bft)
04.04.2009 13:04 8,6 C 90 % 1015,5 hPa 0,0 l/m 23,0 km/h (4 Bft) W-NW 300 0 min 0 W/m 7,1 C 0,5 C 23,0 km/h (4 Bft)
04.04.2009 13:09 8,6 C 90 % 1015,5 hPa 0,0 l/m 20,6 km/h (4 Bft) W-NW 290 0 min 0 W/m 7,1 C 1,3 C 20,6 km/h (4 Bft)
04.04.2009 13:14 8,7 C 90 % 1015,5 hPa 0,0 l/m 16,2 km/h (3 Bft) W-NW 295 0 min 0 W/m 7,2 C 3,0 C 16,2 km/h (3 Bft)
04.04.2009 13:15 8,7 C 90 % 1015,5 hPa 0,0 l/m 16,2 km/h (3 Bft) W-NW 295 0 min 0 W/m 7,2 C 3,0 C 16,2 km/h (3 Bft)
04.04.2009 13:20 8,8 C 90 % 1015,5 hPa 0,0 l/m 25,2 km/h (4 Bft) W-NW 295 0 min 0 W/m 7,3 C 0,2 C 25,2 km/h (4 Bft)
04.04.2009 13:25 8,9 C 89 % 1016,5 hPa 0,9 l/m 27,6 km/h (5 Bft) W-NW 295 0 min 0 W/m 7,2 C -0,3 C 27,6 km/h (5 Bft)
04.04.2009 13:34 9,2 C 89 % 1016,5 hPa 0,0 l/m 24,0 km/h (4 Bft) W-NW 295 0 min 0 W/m 7,5 C 1,0 C 24,0 km/h (4 Bft)
04.04.2009 13:39 9,2 C 89 % 1016,5 hPa 0,0 l/m 27,1 km/h (5 Bft) W-NW 295 0 min 0 W/m 7,5 C 0,2 C 27,1 km/h (5 Bft)
04.04.2009 13:44 9,2 C 89 % 1016,5 hPa 0,0 l/m 23,3 km/h (4 Bft) W-NW 295 0 min 0 W/m 7,5 C 1,2 C 23,3 km/h (4 Bft)
04.04.2009 13:49 9,0 C 88 % 1016,5 hPa 0,0 l/m 23,6 km/h (4 Bft) W-NW 300 0 min 0 W/m 7,1 C 0,9 C 23,6 km/h (4 Bft)
04.04.2009 13:54 8,9 C 89 % 1016,5 hPa 0,0 l/m 24,4 km/h (4 Bft) NW 315 0 min 0 W/m 7,2 C 0,5 C 24,4 km/h (4 Bft)
04.04.2009 13:59 8,8 C 90 % 1016,5 hPa 0,0 l/m 26,5 km/h (4 Bft) NW 305 0 min 0 W/m 7,3 C -0,2 C 26,5 km/h (4 Bft)
04.04.2009 14:00 8,8 C 90 % 1016,5 hPa 0,0 l/m 26,5 km/h (4 Bft) NW 305 0 min 0 W/m 7,3 C -0,2 C 26,5 km/h (4 Bft)
04.04.2009 14:05 8,8 C 90 % 1016,5 hPa 0,0 l/m 26,9 km/h (4 Bft) W-NW 290 0 min 0 W/m 7,3 C -0,3 C 26,9 km/h (4 Bft)
04.04.2009 14:10 8,8 C 90 % 1016,5 hPa 0,0 l/m 21,1 km/h (4 Bft) W-NW 295 0 min 0 W/m 7,3 C 1,4 C 21,1 km/h (4 Bft)
04.04.2009 14:15 8,8 C 90 % 1016,5 hPa 0,0 l/m 19,9 km/h (4 Bft) NW 310 0 min 0 W/m 7,3 C 1,8 C 19,9 km/h (4 Bft)
04.04.2009 14:19 8,8 C 90 % 1016,5 hPa 0,0 l/m 20,3 km/h (4 Bft) NW 310 0 min 0 W/m 7,3 C 1,6 C 20,3 km/h (4 Bft)
04.04.2009 14:24 8,8 C 90 % 1016,5 hPa 0,0 l/m 19,6 km/h (3 Bft) W-NW 300 0 min 0 W/m 7,3 C 1,9 C 19,6 km/h (3 Bft)
04.04.2009 14:25 8,8 C 90 % 1016,5 hPa 0,0 l/m 19,6 km/h (3 Bft) W-NW 300 0 min 0 W/m 7,3 C 1,9 C 19,6 km/h (3 Bft)
04.04.2009 14:29 8,7 C 90 % 1016,5 hPa 0,0 l/m 19,6 km/h (3 Bft) W-NW 300 0 min 0 W/m 7,2 C 1,7 C 19,6 km/h (3 Bft)
04.04.2009 14:30 8,7 C 90 % 1016,5 hPa 0,0 l/m 19,6 km/h (3 Bft) W-NW 300 0 min 0 W/m 7,2 C 1,7 C 19,6 km/h (3 Bft)
04.04.2009 14:35 8,6 C 90 % 1016,5 hPa 0,0 l/m 25,7 km/h (4 Bft) NW 305 0 min 0 W/m 7,1 C -0,3 C 25,7 km/h (4 Bft)
04.04.2009 14:40 8,7 C 90 % 1016,5 hPa 0,0 l/m 18,7 km/h (3 Bft) NW 315 0 min 0 W/m 7,2 C 2,1 C 18,7 km/h (3 Bft)
04.04.2009 14:44 8,7 C 90 % 1016,5 hPa 0,0 l/m 21,3 km/h (4 Bft) NW 305 0 min 0 W/m 7,2 C 1,2 C 21,3 km/h (4 Bft)
04.04.2009 14:49 8,8 C 90 % 1016,5 hPa 0,0 l/m 19,8 km/h (3 Bft) NW 310 0 min 0 W/m 7,3 C 1,8 C 19,8 km/h (3 Bft)
04.04.2009 14:54 8,7 C 90 % 1016,5 hPa 0,0 l/m 22,5 km/h (4 Bft) NW 310 0 min 0 W/m 7,2 C 0,8 C 22,5 km/h (4 Bft)
04.04.2009 14:59 8,5 C 90 % 1016,5 hPa 0,0 l/m 21,0 km/h (4 Bft) NW 310 0 min 0 W/m 7,0 C 1,0 C 21,0 km/h (4 Bft)
04.04.2009 15:04 8,5 C 90 % 1016,5 hPa 0,0 l/m 19,2 km/h (3 Bft) NW 310 0 min 0 W/m 7,0 C 1,6 C 19,2 km/h (3 Bft)
04.04.2009 15:10 8,5 C 90 % 1016,5 hPa 0,0 l/m 15,0 km/h (3 Bft) NW 305 0 min 0 W/m 7,0 C 3,3 C 15,0 km/h (3 Bft)
04.04.2009 15:14 8,6 C 90 % 1016,5 hPa 0,0 l/m 18,0 km/h (3 Bft) W-NW 295 0 min 0 W/m 7,1 C 2,2 C 18,0 km/h (3 Bft)
04.04.2009 15:20 8,6 C 90 % 1016,5 hPa 0,0 l/m 15,8 km/h (3 Bft) W-NW 295 0 min 0 W/m 7,1 C 3,1 C 15,8 km/h (3 Bft)
04.04.2009 15:24 8,6 C 90 % 1016,5 hPa 0,0 l/m 14,8 km/h (3 Bft) W-NW 295 0 min 0 W/m 7,1 C 3,5 C 14,8 km/h (3 Bft)
04.04.2009 15:29 8,7 C 90 % 1016,5 hPa 0,0 l/m 14,5 km/h (3 Bft) W-NW 290 0 min 0 W/m 7,2 C 3,8 C 14,5 km/h (3 Bft)
04.04.2009 15:34 8,7 C 90 % 1016,5 hPa 0,0 l/m 14,8 km/h (3 Bft) W-NW 290 0 min 0 W/m 7,2 C 3,6 C 14,8 km/h (3 Bft)
04.04.2009 15:39 8,8 C 90 % 1016,5 hPa 0,0 l/m 13,0 km/h (3 Bft) W-NW 290 0 min 0 W/m 7,3 C 4,6 C 13,0 km/h (3 Bft)
04.04.2009 15:44 8,9 C 90 % 1016,5 hPa 0,0 l/m 10,8 km/h (2 Bft) W 280 0 min 0 W/m 7,4 C 5,9 C 10,8 km/h (2 Bft)
04.04.2009 15:49 9,0 C 90 % 1016,5 hPa 0,0 l/m 14,3 km/h (3 Bft) W 275 0 min 0 W/m 7,4 C 4,2 C 14,3 km/h (3 Bft)
04.04.2009 15:50 9,0 C 90 % 1016,5 hPa 0,0 l/m 14,3 km/h (3 Bft) W 275 0 min 0 W/m 7,4 C 4,2 C 14,3 km/h (3 Bft)
04.04.2009 15:54 9,1 C 90 % 1016,5 hPa 0,0 l/m 11,0 km/h (2 Bft) W 275 0 min 0 W/m 7,5 C 6,0 C 11,0 km/h (2 Bft)
04.04.2009 15:59 9,2 C 90 % 1016,5 hPa 0,0 l/m 18,1 km/h (3 Bft) W 275 0 min 0 W/m 7,6 C 2,9 C 18,1 km/h (3 Bft)
04.04.2009 16:04 9,4 C 90 % 1016,5 hPa 0,0 l/m 13,1 km/h (3 Bft) W 265 0 min 0 W/m 7,8 C 5,3 C 13,1 km/h (3 Bft)
04.04.2009 16:09 9,4 C 90 % 1016,5 hPa 0,0 l/m 15,3 km/h (3 Bft) W 275 0 min 0 W/m 7,8 C 4,3 C 15,3 km/h (3 Bft)
04.04.2009 16:10 9,4 C 90 % 1016,5 hPa 0,0 l/m 15,3 km/h (3 Bft) W 275 0 min 0 W/m 7,8 C 4,3 C 15,3 km/h (3 Bft)
04.04.2009 16:14 9,5 C 90 % 1016,5 hPa 0,0 l/m 13,6 km/h (3 Bft) NW 305 0 min 0 W/m 7,9 C 5,2 C 13,6 km/h (3 Bft)
04.04.2009 16:15 9,5 C 90 % 1016,5 hPa 0,0 l/m 13,6 km/h (3 Bft) NW 305 0 min 0 W/m 7,9 C 5,2 C 13,6 km/h (3 Bft)
04.04.2009 16:20 9,5 C 90 % 1016,5 hPa 0,0 l/m 17,0 km/h (3 Bft) W 275 0 min 0 W/m 7,9 C 3,7 C 17,0 km/h (3 Bft)
04.04.2009 16:24 9,6 C 89 % 1017,5 hPa 0,0 l/m 15,3 km/h (3 Bft) W 260 0 min 0 W/m 7,9 C 4,5 C 15,3 km/h (3 Bft)
04.04.2009 16:25 9,6 C 89 % 1017,5 hPa 0,0 l/m 15,3 km/h (3 Bft) W 260 0 min 0 W/m 7,9 C 4,5 C 15,3 km/h (3 Bft)
04.04.2009 16:29 9,6 C 89 % 1017,5 hPa 0,0 l/m 12,4 km/h (2 Bft) W 280 0 min 0 W/m 7,9 C 5,9 C 12,4 km/h (2 Bft)
04.04.2009 16:34 9,7 C 89 % 1016,5 hPa 0,0 l/m 15,3 km/h (3 Bft) W 265 0 min 0 W/m 8,0 C 4,6 C 15,3 km/h (3 Bft)
04.04.2009 16:39 9,8 C 89 % 1016,5 hPa 0,0 l/m 15,0 km/h (3 Bft) W 270 0 min 0 W/m 8,1 C 4,9 C 15,0 km/h (3 Bft)
04.04.2009 16:40 9,8 C 89 % 1016,5 hPa 0,0 l/m 15,0 km/h (3 Bft) W 270 0 min 0 W/m 8,1 C 4,9 C 15,0 km/h (3 Bft)
04.04.2009 16:45 9,8 C 89 % 1016,5 hPa 0,0 l/m 18,3 km/h (3 Bft) W 270 0 min 0 W/m 8,1 C 3,6 C 18,3 km/h (3 Bft)
04.04.2009 16:49 9,7 C 89 % 1016,5 hPa 0,0 l/m 18,1 km/h (3 Bft) W 270 0 min 0 W/m 8,0 C 3,6 C 18,1 km/h (3 Bft)
04.04.2009 16:50 9,7 C 89 % 1016,5 hPa 0,0 l/m 18,1 km/h (3 Bft) W 270 0 min 0 W/m 8,0 C 3,6 C 18,1 km/h (3 Bft)
04.04.2009 16:55 9,7 C 89 % 1016,5 hPa 0,0 l/m 17,3 km/h (3 Bft) W 265 0 min 0 W/m 8,0 C 3,9 C 17,3 km/h (3 Bft)
04.04.2009 17:00 9,7 C 89 % 1016,5 hPa 0,0 l/m 16,1 km/h (3 Bft) W-SW 255 0 min 0 W/m 8,0 C 4,3 C 16,1 km/h (3 Bft)
04.04.2009 17:04 9,7 C 89 % 1016,5 hPa 0,0 l/m 18,9 km/h (3 Bft) W 260 0 min 0 W/m 8,0 C 3,3 C 18,9 km/h (3 Bft)
04.04.2009 17:09 9,8 C 89 % 1017,5 hPa 0,0 l/m 15,8 km/h (3 Bft) W 260 0 min 0 W/m 8,1 C 4,6 C 15,8 km/h (3 Bft)
04.04.2009 17:14 9,7 C 89 % 1017,5 hPa 0,0 l/m 17,0 km/h (3 Bft) W-SW 255 0 min 0 W/m 8,0 C 4,0 C 17,0 km/h (3 Bft)
04.04.2009 17:19 9,7 C 89 % 1016,5 hPa 0,0 l/m 19,1 km/h (3 Bft) W 265 0 min 0 W/m 8,0 C 3,2 C 19,1 km/h (3 Bft)
04.04.2009 17:20 9,7 C 89 % 1016,5 hPa 0,0 l/m 19,1 km/h (3 Bft) W 265 0 min 0 W/m 8,0 C 3,2 C 19,1 km/h (3 Bft)
04.04.2009 17:24 9,7 C 89 % 1016,5 hPa 0,0 l/m 16,3 km/h (3 Bft) W-SW 255 0 min 0 W/m 8,0 C 4,2 C 16,3 km/h (3 Bft)
04.04.2009 17:25 9,7 C 89 % 1016,5 hPa 0,0 l/m 16,3 km/h (3 Bft) W-SW 255 0 min 0 W/m 8,0 C 4,2 C 16,3 km/h (3 Bft)
04.04.2009 17:30 9,8 C 89 % 1017,5 hPa 0,0 l/m 19,8 km/h (3 Bft) W-SW 255 0 min 0 W/m 8,1 C 3,1 C 19,8 km/h (3 Bft)
04.04.2009 17:34 9,8 C 89 % 1016,5 hPa 0,0 l/m 16,9 km/h (3 Bft) W 260 0 min 0 W/m 8,1 C 4,1 C 16,9 km/h (3 Bft)
04.04.2009 17:39 9,8 C 89 % 1016,5 hPa 0,0 l/m 16,5 km/h (3 Bft) W 265 0 min 0 W/m 8,1 C 4,3 C 16,5 km/h (3 Bft)
04.04.2009 17:44 9,8 C 89 % 1016,5 hPa 0,0 l/m 17,5 km/h (3 Bft) W-SW 255 0 min 0 W/m 8,1 C 3,9 C 17,5 km/h (3 Bft)
04.04.2009 17:49 9,8 C 89 % 1016,5 hPa 0,0 l/m 18,3 km/h (3 Bft) W 260 0 min 0 W/m 8,1 C 3,6 C 18,3 km/h (3 Bft)
04.04.2009 17:50 9,8 C 89 % 1016,5 hPa 0,0 l/m 18,3 km/h (3 Bft) W 260 0 min 0 W/m 8,1 C 3,6 C 18,3 km/h (3 Bft)
04.04.2009 17:55 9,9 C 89 % 1016,5 hPa 0,0 l/m 16,2 km/h (3 Bft) W 260 0 min 0 W/m 8,2 C 4,5 C 16,2 km/h (3 Bft)
04.04.2009 17:59 9,9 C 89 % 1016,5 hPa 0,0 l/m 21,9 km/h (4 Bft) W 265 0 min 0 W/m 8,2 C 2,6 C 21,9 km/h (4 Bft)
04.04.2009 18:04 9,9 C 89 % 1017,5 hPa 0,0 l/m 20,5 km/h (4 Bft) W 270 0 min 0 W/m 8,2 C 3,0 C 20,5 km/h (4 Bft)
04.04.2009 18:09 10,0 C 89 % 1017,5 hPa 0,0 l/m 18,3 km/h (3 Bft) W 265 0 min 0 W/m 8,3 C 3,9 C 18,3 km/h (3 Bft)
04.04.2009 18:14 10,0 C 88 % 1017,5 hPa 0,0 l/m 15,3 km/h (3 Bft) W 270 0 min 0 W/m 8,1 C 5,0 C 15,3 km/h (3 Bft)
04.04.2009 18:15 10,0 C 88 % 1017,5 hPa 0,0 l/m 15,3 km/h (3 Bft) W 270 0 min 0 W/m 8,1 C 5,0 C 15,3 km/h (3 Bft)
04.04.2009 18:19 10,0 C 88 % 1017,5 hPa 0,0 l/m 19,6 km/h (3 Bft) W 260 0 min 0 W/m 8,1 C 3,4 C 19,6 km/h (3 Bft)
04.04.2009 18:24 10,0 C 88 % 1017,5 hPa 0,0 l/m 14,5 km/h (3 Bft) NW 305 0 min 0 W/m 8,1 C 5,3 C 14,5 km/h (3 Bft)
04.04.2009 18:29 10,0 C 88 % 1017,5 hPa 0,0 l/m 13,8 km/h (3 Bft) NW 310 0 min 0 W/m 8,1 C 5,7 C 13,8 km/h (3 Bft)
04.04.2009 18:34 9,6 C 88 % 1017,5 hPa 0,0 l/m 15,4 km/h (3 Bft) NW 320 0 min 0 W/m 7,7 C 4,5 C 15,4 km/h (3 Bft)
04.04.2009 18:40 9,5 C 88 % 1017,5 hPa 0,0 l/m 19,1 km/h (3 Bft) NW 310 0 min 0 W/m 7,6 C 2,9 C 19,1 km/h (3 Bft)
04.04.2009 18:45 9,3 C 88 % 1017,5 hPa 0,0 l/m 18,2 km/h (3 Bft) W-NW 295 0 min 0 W/m 7,4 C 3,0 C 18,2 km/h (3 Bft)
04.04.2009 18:49 9,1 C 89 % 1017,5 hPa 0,0 l/m 14,8 km/h (3 Bft) NW 305 0 min 0 W/m 7,4 C 4,1 C 14,8 km/h (3 Bft)
04.04.2009 18:54 9,1 C 89 % 1017,5 hPa 0,0 l/m 12,6 km/h (3 Bft) W-NW 295 0 min 0 W/m 7,4 C 5,2 C 12,6 km/h (3 Bft)
04.04.2009 18:59 9,0 C 89 % 1017,5 hPa 0,0 l/m 12,3 km/h (2 Bft) NW 315 0 min 0 W/m 7,3 C 5,2 C 12,3 km/h (2 Bft)
04.04.2009 19:05 8,9 C 90 % 1017,5 hPa 0,0 l/m 11,5 km/h (2 Bft) NW 305 0 min 0 W/m 7,4 C 5,5 C 11,5 km/h (2 Bft)
04.04.2009 19:10 8,8 C 90 % 1017,5 hPa 0,0 l/m 15,3 km/h (3 Bft) W-NW 300 0 min 0 W/m 7,3 C 3,5 C 15,3 km/h (3 Bft)
04.04.2009 19:15 8,8 C 90 % 1017,5 hPa 0,0 l/m 14,3 km/h (3 Bft) W-NW 290 0 min 0 W/m 7,3 C 4,0 C 14,3 km/h (3 Bft)
04.04.2009 19:19 8,8 C 90 % 1017,5 hPa 0,0 l/m 16,5 km/h (3 Bft) W-NW 295 0 min 0 W/m 7,3 C 3,0 C 16,5 km/h (3 Bft)
04.04.2009 19:24 8,8 C 90 % 1017,5 hPa 0,0 l/m 14,0 km/h (3 Bft) NW 305 0 min 0 W/m 7,3 C 4,1 C 14,0 km/h (3 Bft)
04.04.2009 19:29 8,8 C 90 % 1017,5 hPa 0,0 l/m 13,7 km/h (3 Bft) W-NW 285 0 min 0 W/m 7,3 C 4,3 C 13,7 km/h (3 Bft)
04.04.2009 19:35 8,8 C 90 % 1017,5 hPa 0,0 l/m 13,1 km/h (3 Bft) W-NW 295 0 min 0 W/m 7,3 C 4,6 C 13,1 km/h (3 Bft)
04.04.2009 19:40 8,8 C 91 % 1017,5 hPa 0,0 l/m 15,5 km/h (3 Bft) W-NW 290 0 min 0 W/m 7,4 C 3,5 C 15,5 km/h (3 Bft)
04.04.2009 19:44 8,8 C 91 % 1017,5 hPa 0,0 l/m 14,7 km/h (3 Bft) W 270 0 min 0 W/m 7,4 C 3,8 C 14,7 km/h (3 Bft)
04.04.2009 19:49 8,8 C 91 % 1017,5 hPa 0,0 l/m 14,7 km/h (3 Bft) W 270 0 min 0 W/m 7,4 C 3,8 C 14,7 km/h (3 Bft)
04.04.2009 19:54 8,8 C 91 % 1017,5 hPa 0,0 l/m 13,8 km/h (3 Bft) W 260 0 min 0 W/m 7,4 C 4,2 C 13,8 km/h (3 Bft)
04.04.2009 20:00 8,8 C 91 % 1017,5 hPa 0,0 l/m 14,5 km/h (3 Bft) W 260 0 min 0 W/m 7,4 C 3,9 C 14,5 km/h (3 Bft)
04.04.2009 20:04 8,8 C 91 % 1017,5 hPa 0,0 l/m 17,5 km/h (3 Bft) W 260 0 min 0 W/m 7,4 C 2,6 C 17,5 km/h (3 Bft)
04.04.2009 20:10 8,8 C 90 % 1017,5 hPa 0,0 l/m 17,2 km/h (3 Bft) W-SW 250 0 min 0 W/m 7,3 C 2,8 C 17,2 km/h (3 Bft)
04.04.2009 20:14 8,8 C 90 % 1017,5 hPa 0,0 l/m 11,1 km/h (2 Bft) W 260 0 min 0 W/m 7,3 C 5,6 C 11,1 km/h (2 Bft)
04.04.2009 20:19 8,8 C 90 % 1018,5 hPa 0,0 l/m 13,5 km/h (3 Bft) W 270 0 min 0 W/m 7,3 C 4,4 C 13,5 km/h (3 Bft)
04.04.2009 20:24 8,8 C 90 % 1018,5 hPa 0,0 l/m 11,2 km/h (2 Bft) W 270 0 min 0 W/m 7,3 C 5,6 C 11,2 km/h (2 Bft)
04.04.2009 20:29 8,8 C 90 % 1018,5 hPa 0,0 l/m 10,1 km/h (2 Bft) W-SW 250 0 min 0 W/m 7,3 C 6,2 C 10,1 km/h (2 Bft)
04.04.2009 20:35 8,9 C 90 % 1018,5 hPa 0,0 l/m 9,1 km/h (2 Bft) W 275 0 min 0 W/m 7,4 C 6,9 C 9,1 km/h (2 Bft)
04.04.2009 20:39 8,9 C 90 % 1018,5 hPa 0,0 l/m 10,3 km/h (2 Bft) W-NW 290 0 min 0 W/m 7,4 C 6,2 C 10,3 km/h (2 Bft)
04.04.2009 20:44 8,9 C 90 % 1018,5 hPa 0,0 l/m 10,3 km/h (2 Bft) W-NW 290 0 min 0 W/m 7,4 C 6,2 C 10,3 km/h (2 Bft)
04.04.2009 20:49 9,0 C 89 % 1018,5 hPa 0,0 l/m 17,4 km/h (3 Bft) W-NW 285 0 min 0 W/m 7,3 C 2,9 C 17,4 km/h (3 Bft)
04.04.2009 20:54 9,0 C 88 % 1018,5 hPa 0,0 l/m 15,7 km/h (3 Bft) W-NW 295 0 min 0 W/m 7,1 C 3,6 C 15,7 km/h (3 Bft)
04.04.2009 20:59 9,0 C 87 % 1018,5 hPa 0,0 l/m 19,5 km/h (3 Bft) NW 305 0 min 0 W/m 7,0 C 2,2 C 19,5 km/h (3 Bft)
04.04.2009 21:05 8,9 C 85 % 1018,5 hPa 0,0 l/m 20,4 km/h (4 Bft) W-NW 300 0 min 0 W/m 6,5 C 1,7 C 20,4 km/h (4 Bft)
04.04.2009 21:09 8,8 C 85 % 1018,5 hPa 0,0 l/m 17,5 km/h (3 Bft) W-NW 300 0 min 0 W/m 6,4 C 2,6 C 17,5 km/h (3 Bft)
04.04.2009 21:15 8,8 C 85 % 1018,5 hPa 0,0 l/m 15,9 km/h (3 Bft) W-NW 290 0 min 0 W/m 6,4 C 3,3 C 15,9 km/h (3 Bft)
04.04.2009 21:19 8,8 C 85 % 1018,5 hPa 0,0 l/m 14,3 km/h (3 Bft) W-NW 295 0 min 0 W/m 6,4 C 4,0 C 14,3 km/h (3 Bft)
04.04.2009 21:24 8,7 C 85 % 1018,5 hPa 0,0 l/m 19,1 km/h (3 Bft) W-NW 300 0 min 0 W/m 6,3 C 1,9 C 19,1 km/h (3 Bft)
04.04.2009 21:29 8,6 C 85 % 1018,5 hPa 0,0 l/m 17,0 km/h (3 Bft) W-NW 290 0 min 0 W/m 6,2 C 2,6 C 17,0 km/h (3 Bft)
04.04.2009 21:35 8,5 C 85 % 1018,5 hPa 0,0 l/m 18,0 km/h (3 Bft) NW 305 0 min 0 W/m 6,1 C 2,1 C 18,0 km/h (3 Bft)
04.04.2009 21:40 8,5 C 84 % 1018,5 hPa 0,0 l/m 16,8 km/h (3 Bft) W-NW 300 0 min 0 W/m 6,0 C 2,5 C 16,8 km/h (3 Bft)
04.04.2009 21:44 8,4 C 83 % 1018,5 hPa 0,0 l/m 19,6 km/h (3 Bft) NW 305 0 min 0 W/m 5,7 C 1,4 C 19,6 km/h (3 Bft)
04.04.2009 21:49 8,4 C 84 % 1018,5 hPa 0,0 l/m 18,4 km/h (3 Bft) W-NW 300 0 min 0 W/m 5,9 C 1,8 C 18,4 km/h (3 Bft)
04.04.2009 21:54 8,4 C 84 % 1018,5 hPa 0,0 l/m 18,1 km/h (3 Bft) W-NW 300 0 min 0 W/m 5,9 C 1,9 C 18,1 km/h (3 Bft)
04.04.2009 22:00 8,4 C 83 % 1019,5 hPa 0,0 l/m 20,3 km/h (4 Bft) NW 315 0 min 0 W/m 5,7 C 1,1 C 20,3 km/h (4 Bft)
04.04.2009 22:04 8,4 C 83 % 1019,5 hPa 0,0 l/m 15,0 km/h (3 Bft) NW 305 0 min 0 W/m 5,7 C 3,2 C 15,0 km/h (3 Bft)
04.04.2009 22:10 8,4 C 83 % 1019,5 hPa 0,0 l/m 20,5 km/h (4 Bft) W-NW 295 0 min 0 W/m 5,7 C 1,0 C 20,5 km/h (4 Bft)
04.04.2009 22:14 8,4 C 83 % 1019,5 hPa 0,0 l/m 17,8 km/h (3 Bft) W-NW 295 0 min 0 W/m 5,7 C 2,0 C 17,8 km/h (3 Bft)
04.04.2009 22:19 8,4 C 83 % 1019,5 hPa 0,0 l/m 16,6 km/h (3 Bft) W-NW 285 0 min 0 W/m 5,7 C 2,5 C 16,6 km/h (3 Bft)
04.04.2009 22:24 8,4 C 83 % 1019,5 hPa 0,0 l/m 19,1 km/h (3 Bft) W-NW 295 0 min 0 W/m 5,7 C 1,5 C 19,1 km/h (3 Bft)
04.04.2009 22:30 8,4 C 83 % 1019,5 hPa 0,0 l/m 16,3 km/h (3 Bft) W 280 0 min 0 W/m 5,7 C 2,6 C 16,3 km/h (3 Bft)
04.04.2009 22:34 8,3 C 83 % 1019,5 hPa 0,0 l/m 20,2 km/h (4 Bft) W-NW 285 0 min 0 W/m 5,6 C 1,0 C 20,2 km/h (4 Bft)
04.04.2009 22:39 8,3 C 82 % 1019,5 hPa 0,0 l/m 21,9 km/h (4 Bft) W-NW 295 0 min 0 W/m 5,4 C 0,5 C 21,9 km/h (4 Bft)
04.04.2009 22:44 8,3 C 82 % 1019,5 hPa 0,0 l/m 20,3 km/h (4 Bft) NW 310 0 min 0 W/m 5,4 C 1,0 C 20,3 km/h (4 Bft)
04.04.2009 22:50 8,3 C 82 % 1019,5 hPa 0,0 l/m 18,8 km/h (3 Bft) W-NW 295 0 min 0 W/m 5,4 C 1,5 C 18,8 km/h (3 Bft)
04.04.2009 22:55 8,3 C 83 % 1019,5 hPa 0,0 l/m 18,0 km/h (3 Bft) W-NW 300 0 min 0 W/m 5,6 C 1,8 C 18,0 km/h (3 Bft)
04.04.2009 22:59 8,3 C 83 % 1019,5 hPa 0,0 l/m 21,5 km/h (4 Bft) W-NW 300 0 min 0 W/m 5,6 C 0,6 C 21,5 km/h (4 Bft)
04.04.2009 23:04 8,3 C 83 % 1019,5 hPa 0,0 l/m 21,3 km/h (4 Bft) W-NW 300 0 min 0 W/m 5,6 C 0,7 C 21,3 km/h (4 Bft)
04.04.2009 23:09 8,3 C 83 % 1019,5 hPa 0,0 l/m 19,5 km/h (3 Bft) NW 310 0 min 0 W/m 5,6 C 1,3 C 19,5 km/h (3 Bft)
04.04.2009 23:14 8,3 C 83 % 1019,5 hPa 0,0 l/m 15,0 km/h (3 Bft) W-NW 285 0 min 0 W/m 5,6 C 3,1 C 15,0 km/h (3 Bft)
04.04.2009 23:19 8,3 C 83 % 1019,5 hPa 0,0 l/m 17,1 km/h (3 Bft) W-NW 300 0 min 0 W/m 5,6 C 2,2 C 17,1 km/h (3 Bft)
04.04.2009 23:25 8,2 C 83 % 1019,5 hPa 0,0 l/m 16,5 km/h (3 Bft) NW 310 0 min 0 W/m 5,5 C 2,3 C 16,5 km/h (3 Bft)
04.04.2009 23:29 8,2 C 83 % 1019,5 hPa 0,0 l/m 21,8 km/h (4 Bft) W-NW 295 0 min 0 W/m 5,5 C 0,4 C 21,8 km/h (4 Bft)
04.04.2009 23:34 8,2 C 84 % 1019,5 hPa 0,0 l/m 19,1 km/h (3 Bft) W-NW 290 0 min 0 W/m 5,7 C 1,3 C 19,1 km/h (3 Bft)
04.04.2009 23:39 8,2 C 84 % 1019,5 hPa 0,0 l/m 21,3 km/h (4 Bft) W-NW 290 0 min 0 W/m 5,7 C 0,5 C 21,3 km/h (4 Bft)
04.04.2009 23:45 8,2 C 84 % 1019,5 hPa 0,0 l/m 16,7 km/h (3 Bft) W-NW 295 0 min 0 W/m 5,7 C 2,2 C 16,7 km/h (3 Bft)
04.04.2009 23:49 8,2 C 84 % 1019,5 hPa 0,0 l/m 13,7 km/h (3 Bft) W-NW 300 0 min 0 W/m 5,7 C 3,6 C 13,7 km/h (3 Bft)
04.04.2009 23:54 8,1 C 84 % 1019,5 hPa 0,0 l/m 21,8 km/h (4 Bft) W-NW 295 0 min 0 W/m 5,6 C 0,2 C 21,8 km/h (4 Bft)
04.04.2009 23:59 8,1 C 84 % 1019,5 hPa 0,0 l/m 16,3 km/h (3 Bft) W-NW 295 0 min 0 W/m 5,6 C 2,3 C 16,3 km/h (3 Bft)
_ Min-Zeit 06:19 00:04 03:19 - 01:59 - - - - 06:19 11:29 01:59
Minimum _ 6,7 C 78 % 1012,5 hPa - 0,0 km/h (0 Bft) - - - - 4,7 C -1,7 C 0,0 km/h (0 Bft)
_ Max-Zeit 09:29 08:49 22:00 13:25 10:54 - - 00:04 00:04 09:19 00:14 10:54
Maximum _ 11,2 C 91 % 1019,5 hPa 0,9 l/m 30,6 km/h
W-NW (5 Bft)
- - 0 min 0 W/m 9,1 C 10,1 C 30,6 km/h
W-NW (5 Bft)
Durchschnitt _ 8,7 C 86 % 1015,4 hPa #0,9 l/m 13,0 km/h (3 Bft) W-NW - #0 min. 0 W/m 6,6 C 4,7 C 13,0 km/h (3 Bft)
copyright by Holger Just